Time,TemperatureF,DewpointF,PressureIn,WindDirection,WindDirectionDegrees,WindSpeedMPH,WindSpeedGustMPH,Humidity,HourlyPrecipIn,Conditions,Clouds,dailyrainin,SoftwareType,DateUTC
2013-10-30 00:00:00,69.6,66.9,29.99,SE,145,14.0,27.0,91,0.00,,,0.00,Wunderground v.1.15,2013-10-30 05:00:00,
2013-10-30 00:06:00,69.6,66.9,29.98,SSE,160,13.0,27.0,91,0.00,,,0.00,Wunderground v.1.15,2013-10-30 05:06:00,
2013-10-30 00:12:00,69.6,66.9,29.98,SSE,153,14.0,27.0,91,0.00,,,0.00,Wunderground v.1.15,2013-10-30 05:12:00,
2013-10-30 00:18:00,69.6,66.9,29.98,SSE,153,15.0,27.0,91,0.00,,,0.00,Wunderground v.1.15,2013-10-30 05:18:00,
2013-10-30 00:24:00,69.6,66.9,29.98,SSE,153,14.0,27.0,91,0.00,,,0.00,Wunderground v.1.15,2013-10-30 05:24:00,
2013-10-30 00:30:00,69.6,66.9,29.98,SE,131,14.0,27.0,91,0.00,,,0.00,Wunderground v.1.15,2013-10-30 05:30:00,
2013-10-30 00:36:00,69.6,66.9,29.98,SSE,158,13.0,27.0,91,0.00,,,0.00,Wunderground v.1.15,2013-10-30 05:36:00,
2013-10-30 00:42:00,69.6,66.9,29.98,SE,145,13.0,27.0,91,0.00,,,0.00,Wunderground v.1.15,2013-10-30 05:42:00,
2013-10-30 00:50:00,69.6,66.9,29.98,ESE,117,13.0,27.0,91,0.00,,,0.00,Wunderground v.1.15,2013-10-30 05:50:00,
2013-10-30 00:56:00,69.6,67.2,29.98,SSE,150,13.0,27.0,92,0.00,,,0.00,Wunderground v.1.15,2013-10-30 05:56:00,
2013-10-30 01:02:00,69.7,67.3,29.98,South,187,13.0,27.0,92,0.00,,,0.00,Wunderground v.1.15,2013-10-30 06:02:00,
2013-10-30 01:08:00,69.7,67.3,29.97,SSE,151,14.0,27.0,92,0.00,,,0.00,Wunderground v.1.15,2013-10-30 06:08:00,
2013-10-30 01:14:00,69.7,67.3,29.97,SW,214,13.0,27.0,92,0.00,,,0.00,Wunderground v.1.15,2013-10-30 06:14:00,
2013-10-30 01:20:00,69.7,67.3,29.98,SE,141,13.0,27.0,92,0.00,,,0.00,Wunderground v.1.15,2013-10-30 06:20:00,
2013-10-30 01:26:00,69.7,67.3,29.97,SE,139,13.0,27.0,92,0.00,,,0.00,Wunderground v.1.15,2013-10-30 06:26:00,
2013-10-30 01:32:00,69.8,67.7,29.97,SSE,158,12.0,27.0,93,0.00,,,0.00,Wunderground v.1.15,2013-10-30 06:32:00,
2013-10-30 01:38:00,69.8,67.4,29.97,South,172,11.0,27.0,92,0.00,,,0.00,Wunderground v.1.15,2013-10-30 06:38:00,
2013-10-30 01:44:00,69.8,67.4,29.97,East,100,11.0,27.0,92,0.00,,,0.00,Wunderground v.1.15,2013-10-30 06:44:00,
2013-10-30 01:50:00,69.8,67.4,29.97,South,190,11.0,27.0,92,0.00,,,0.00,Wunderground v.1.15,2013-10-30 06:50:00,
2013-10-30 01:56:00,69.8,67.4,29.97,SE,134,12.0,27.0,92,0.00,,,0.00,Wunderground v.1.15,2013-10-30 06:56:00,
2013-10-30 02:02:00,69.8,67.4,29.97,SSE,148,12.0,27.0,92,0.00,,,0.00,Wunderground v.1.15,2013-10-30 07:02:00,
2013-10-30 02:08:00,69.9,67.5,29.97,SSE,150,12.0,27.0,92,0.00,,,0.00,Wunderground v.1.15,2013-10-30 07:08:00,
2013-10-30 02:14:00,69.9,67.5,29.97,ESE,113,11.0,27.0,92,0.00,,,0.00,Wunderground v.1.15,2013-10-30 07:14:00,
2013-10-30 02:20:00,69.9,67.5,29.97,SSE,154,11.0,11.0,92,0.00,,,0.00,Wunderground v.1.15,2013-10-30 07:20:00,
2013-10-30 02:26:00,70.0,67.6,29.97,ESE,121,11.0,27.0,92,0.00,,,0.00,Wunderground v.1.15,2013-10-30 07:26:00,
2013-10-30 02:32:00,70.0,67.9,29.97,South,186,10.0,27.0,93,0.00,,,0.00,Wunderground v.1.15,2013-10-30 07:32:00,
2013-10-30 02:38:00,70.1,68.0,29.96,SSE,148,11.0,27.0,93,0.00,,,0.00,Wunderground v.1.15,2013-10-30 07:38:00,
2013-10-30 02:44:00,70.1,68.0,29.96,South,179,10.0,27.0,93,0.00,,,0.00,Wunderground v.1.15,2013-10-30 07:44:00,
2013-10-30 02:50:00,70.2,68.1,29.96,SSW,193,10.0,10.0,93,0.00,,,0.00,Wunderground v.1.15,2013-10-30 07:50:00,
2013-10-30 02:56:00,70.2,68.1,29.95,South,191,10.0,27.0,93,0.00,,,0.00,Wunderground v.1.15,2013-10-30 07:56:00,
2013-10-30 03:02:00,70.3,68.5,29.95,SSE,151,10.0,27.0,94,0.00,,,0.00,Wunderground v.1.15,2013-10-30 08:02:00,
2013-10-30 03:08:00,70.3,68.5,29.95,ESE,114,11.0,27.0,94,0.00,,,0.00,Wunderground v.1.15,2013-10-30 08:08:00,
2013-10-30 03:14:00,70.4,68.6,29.95,SSE,160,9.0,27.0,94,0.00,,,0.00,Wunderground v.1.15,2013-10-30 08:14:00,
2013-10-30 03:20:00,70.5,68.7,29.94,SE,145,10.0,10.0,94,0.00,,,0.00,Wunderground v.1.15,2013-10-30 08:20:00,
2013-10-30 03:26:00,70.5,68.7,29.94,SSE,162,10.0,27.0,94,0.00,,,0.00,Wunderground v.1.15,2013-10-30 08:26:00,
2013-10-30 03:32:00,70.6,68.8,29.94,SSE,155,9.0,27.0,94,0.00,,,0.00,Wunderground v.1.15,2013-10-30 08:32:00,
2013-10-30 03:38:00,70.5,69.0,29.94,South,184,9.0,27.0,95,0.00,,,0.00,Wunderground v.1.15,2013-10-30 08:38:00,
2013-10-30 03:44:00,70.4,69.2,29.94,SSE,159,9.0,27.0,96,0.00,,,0.00,Wunderground v.1.15,2013-10-30 08:44:00,
2013-10-30 03:50:00,70.3,69.1,29.93,SSW,195,9.0,27.0,96,0.00,,,0.00,Wunderground v.1.15,2013-10-30 08:50:00,
2013-10-30 03:56:00,70.2,69.3,29.94,South,176,9.0,27.0,97,0.00,,,0.00,Wunderground v.1.15,2013-10-30 08:56:00,
2013-10-30 04:02:00,70.2,69.3,29.94,SE,127,9.0,27.0,97,0.00,,,0.00,Wunderground v.1.15,2013-10-30 09:02:00,
2013-10-30 04:08:00,70.2,69.3,29.93,SSE,156,10.0,27.0,97,0.00,,,0.00,Wunderground v.1.15,2013-10-30 09:08:00,
2013-10-30 04:14:00,70.3,69.4,29.93,SSW,192,11.0,27.0,97,0.00,,,0.01,Wunderground v.1.15,2013-10-30 09:14:00,
2013-10-30 04:20:00,70.3,69.7,29.93,SSE,167,10.0,10.0,98,0.00,,,0.01,Wunderground v.1.15,2013-10-30 09:20:00,
2013-10-30 04:26:00,70.3,69.7,29.92,ESE,115,10.0,27.0,98,0.00,,,0.01,Wunderground v.1.15,2013-10-30 09:26:00,
2013-10-30 04:32:00,70.3,69.7,29.93,SE,138,10.0,27.0,98,0.00,,,0.01,Wunderground v.1.15,2013-10-30 09:32:00,
2013-10-30 04:38:00,70.3,69.7,29.92,SE,141,11.0,27.0,98,0.00,,,0.01,Wunderground v.1.15,2013-10-30 09:38:00,
2013-10-30 04:44:00,70.3,69.7,29.92,ESE,122,10.0,27.0,98,0.00,,,0.01,Wunderground v.1.15,2013-10-30 09:44:00,
2013-10-30 04:50:00,70.3,69.7,29.92,ESE,120,10.0,10.0,98,0.00,,,0.01,Wunderground v.1.15,2013-10-30 09:50:00,
2013-10-30 04:56:00,70.4,69.8,29.92,SSE,155,9.0,27.0,98,0.00,,,0.02,Wunderground v.1.15,2013-10-30 09:56:00,
2013-10-30 05:02:00,70.4,69.8,29.92,South,173,10.0,27.0,98,0.00,,,0.02,Wunderground v.1.15,2013-10-30 10:02:00,
2013-10-30 05:08:00,70.4,69.8,29.92,SE,141,10.0,27.0,98,0.00,,,0.02,Wunderground v.1.15,2013-10-30 10:08:00,
2013-10-30 05:14:00,70.4,69.8,29.92,SSE,158,10.0,27.0,98,0.00,,,0.02,Wunderground v.1.15,2013-10-30 10:14:00,
2013-10-30 05:20:00,70.4,69.8,29.92,SSE,163,9.0,9.0,98,0.00,,,0.02,Wunderground v.1.15,2013-10-30 10:20:00,
2013-10-30 05:26:00,70.4,69.8,29.92,SE,134,9.0,27.0,98,0.00,,,0.02,Wunderground v.1.15,2013-10-30 10:26:00,
2013-10-30 05:32:00,70.5,69.9,29.92,South,181,9.0,27.0,98,0.00,,,0.02,Wunderground v.1.15,2013-10-30 10:32:00,
2013-10-30 05:38:00,70.5,69.9,29.92,SSW,194,8.0,27.0,98,0.00,,,0.02,Wunderground v.1.15,2013-10-30 10:38:00,
2013-10-30 05:44:00,70.5,69.9,29.92,SSE,149,8.0,27.0,98,0.00,,,0.02,Wunderground v.1.15,2013-10-30 10:44:00,
2013-10-30 05:50:00,70.5,69.9,29.92,SE,141,9.0,9.0,98,0.00,,,0.02,Wunderground v.1.15,2013-10-30 10:50:00,
2013-10-30 05:56:00,70.5,69.9,29.92,South,174,9.0,27.0,98,0.00,,,0.02,Wunderground v.1.15,2013-10-30 10:56:00,
2013-10-30 06:02:00,70.5,69.9,29.92,SSE,158,8.0,8.0,98,0.00,,,0.02,Wunderground v.1.15,2013-10-30 11:02:00,
2013-10-30 06:08:00,70.5,69.9,29.92,SSE,165,7.0,12.0,98,0.00,,,0.03,Wunderground v.1.15,2013-10-30 11:08:00,
2013-10-30 06:14:00,70.5,69.9,29.92,SSE,150,8.0,8.0,98,0.00,,,0.03,Wunderground v.1.15,2013-10-30 11:14:00,
2013-10-30 06:20:00,70.5,69.9,29.91,SE,139,8.0,10.0,98,0.05,,,0.03,Wunderground v.1.15,2013-10-30 11:20:00,
2013-10-30 06:26:00,70.6,70.0,29.91,SE,128,8.0,11.0,98,0.09,,,0.04,Wunderground v.1.15,2013-10-30 11:26:00,
2013-10-30 06:32:00,70.6,70.0,29.91,ESE,103,7.0,8.0,98,0.09,,,0.05,Wunderground v.1.15,2013-10-30 11:32:00,
2013-10-30 06:38:00,70.6,70.3,29.91,SSE,148,9.0,14.0,99,0.05,,,0.05,Wunderground v.1.15,2013-10-30 11:38:00,
2013-10-30 06:44:00,70.7,70.4,29.91,SE,129,10.0,11.0,99,0.00,,,0.05,Wunderground v.1.15,2013-10-30 11:44:00,
2013-10-30 06:50:00,70.7,70.4,29.91,South,190,9.0,9.0,99,0.00,,,0.05,Wunderground v.1.15,2013-10-30 11:50:00,
2013-10-30 06:56:00,70.7,70.4,29.91,South,190,9.0,13.0,99,0.00,,,0.05,Wunderground v.1.15,2013-10-30 11:56:00,
2013-10-30 07:02:00,70.7,70.4,29.91,SE,127,10.0,13.0,99,0.00,,,0.05,Wunderground v.1.15,2013-10-30 12:02:00,
2013-10-30 07:08:00,70.7,70.4,29.92,South,170,10.0,14.0,99,0.00,,,0.05,Wunderground v.1.15,2013-10-30 12:08:00,
2013-10-30 07:14:00,70.8,70.5,29.91,ESE,123,9.0,13.0,99,0.00,,,0.05,Wunderground v.1.15,2013-10-30 12:14:00,
2013-10-30 07:20:00,70.8,70.5,29.91,SE,141,8.0,13.0,99,0.00,,,0.05,Wunderground v.1.15,2013-10-30 12:20:00,
2013-10-30 07:26:00,70.8,70.5,29.91,SSW,198,8.0,13.0,99,0.00,,,0.05,Wunderground v.1.15,2013-10-30 12:26:00,
2013-10-30 07:32:00,70.8,70.5,29.92,South,173,8.0,9.0,99,0.00,,,0.05,Wunderground v.1.15,2013-10-30 12:32:00,
2013-10-30 07:38:00,70.8,70.5,29.92,SSE,163,8.0,13.0,99,0.00,,,0.05,Wunderground v.1.15,2013-10-30 12:38:00,
2013-10-30 07:44:00,70.8,70.5,29.92,SE,145,8.0,13.0,99,0.00,,,0.05,Wunderground v.1.15,2013-10-30 12:44:00,
2013-10-30 07:50:00,70.8,70.5,29.93,SSE,163,8.0,13.0,99,0.00,,,0.05,Wunderground v.1.15,2013-10-30 12:50:00,
2013-10-30 07:56:00,70.7,70.4,29.93,SE,135,9.0,13.0,99,0.00,,,0.05,Wunderground v.1.15,2013-10-30 12:56:00,
2013-10-30 08:02:00,70.7,70.4,29.93,SSW,193,10.0,14.0,99,0.00,,,0.05,Wunderground v.1.15,2013-10-30 13:02:00,
2013-10-30 08:08:00,70.7,70.4,29.93,SSW,198,10.0,14.0,99,0.00,,,0.05,Wunderground v.1.15,2013-10-30 13:08:00,
2013-10-30 08:14:00,70.7,70.4,29.93,SE,141,10.0,13.0,99,0.00,,,0.05,Wunderground v.1.15,2013-10-30 13:14:00,
2013-10-30 08:20:00,70.7,70.4,29.93,South,180,9.0,14.0,99,0.00,,,0.05,Wunderground v.1.15,2013-10-30 13:20:00,
2013-10-30 08:26:00,70.7,70.4,29.92,South,170,9.0,14.0,99,0.00,,,0.05,Wunderground v.1.15,2013-10-30 13:26:00,
2013-10-30 08:32:00,70.7,70.4,29.92,SE,141,10.0,13.0,99,0.00,,,0.05,Wunderground v.1.15,2013-10-30 13:32:00,
2013-10-30 08:38:00,70.8,70.5,29.92,SE,143,10.0,13.0,99,0.00,,,0.05,Wunderground v.1.15,2013-10-30 13:38:00,
2013-10-30 08:44:00,70.8,70.5,29.92,SSW,205,11.0,15.0,99,0.00,,,0.05,Wunderground v.1.15,2013-10-30 13:44:00,
2013-10-30 08:50:00,70.9,70.6,29.92,South,181,11.0,14.0,99,0.00,,,0.05,Wunderground v.1.15,2013-10-30 13:50:00,
2013-10-30 08:56:00,70.9,70.6,29.92,South,176,11.0,14.0,99,0.00,,,0.05,Wunderground v.1.15,2013-10-30 13:56:00,
2013-10-30 09:02:00,70.9,70.6,29.92,South,188,12.0,13.0,99,0.00,,,0.05,Wunderground v.1.15,2013-10-30 14:02:00,
2013-10-30 09:08:00,70.9,70.3,29.93,South,184,13.0,19.0,98,0.00,,,0.05,Wunderground v.1.15,2013-10-30 14:08:00,
2013-10-30 09:14:00,70.9,70.3,29.93,South,176,13.0,19.0,98,0.00,,,0.05,Wunderground v.1.15,2013-10-30 14:14:00,
2013-10-30 09:20:00,70.8,70.2,29.93,SSW,195,12.0,13.0,98,0.00,,,0.05,Wunderground v.1.15,2013-10-30 14:20:00,
2013-10-30 09:26:00,70.8,70.2,29.93,SSE,150,12.0,13.0,98,0.00,,,0.05,Wunderground v.1.15,2013-10-30 14:26:00,
2013-10-30 09:32:00,71.0,70.4,29.93,South,184,12.0,13.0,98,0.00,,,0.05,Wunderground v.1.15,2013-10-30 14:32:00,
2013-10-30 09:38:00,71.1,70.5,29.93,SW,221,12.0,18.0,98,0.00,,,0.05,Wunderground v.1.15,2013-10-30 14:38:00,
2013-10-30 09:44:00,71.3,70.4,29.93,SSE,154,13.0,13.0,97,0.00,,,0.05,Wunderground v.1.15,2013-10-30 14:44:00,
2013-10-30 09:50:00,71.4,70.5,29.94,South,183,13.0,13.0,97,0.00,,,0.05,Wunderground v.1.15,2013-10-30 14:50:00,
2013-10-30 09:56:00,71.5,70.3,29.93,South,186,13.0,14.0,96,0.00,,,0.05,Wunderground v.1.15,2013-10-30 14:56:00,
2013-10-30 10:02:00,71.8,70.6,29.94,SSE,160,13.0,20.0,96,0.00,,,0.05,Wunderground v.1.15,2013-10-30 15:02:00,
2013-10-30 10:08:00,71.8,70.3,29.93,SSE,158,14.0,20.0,95,0.00,,,0.05,Wunderground v.1.15,2013-10-30 15:08:00,
2013-10-30 10:14:00,71.8,70.0,29.93,SE,129,14.0,18.0,94,0.00,,,0.05,Wunderground v.1.15,2013-10-30 15:14:00,
2013-10-30 10:20:00,71.9,70.1,29.94,WSW,239,13.0,16.0,94,0.00,,,0.05,Wunderground v.1.15,2013-10-30 15:20:00,
2013-10-30 10:26:00,71.9,70.1,29.94,SSW,200,13.0,19.0,94,0.00,,,0.05,Wunderground v.1.15,2013-10-30 15:26:00,
2013-10-30 10:32:00,72.0,70.2,29.93,SSE,156,15.0,15.0,94,0.00,,,0.05,Wunderground v.1.15,2013-10-30 15:32:00,
2013-10-30 10:38:00,72.0,70.2,29.93,SSW,195,14.0,15.0,94,0.00,,,0.05,Wunderground v.1.15,2013-10-30 15:38:00,
2013-10-30 10:44:00,72.1,70.3,29.93,SSE,162,13.0,15.0,94,0.00,,,0.05,Wunderground v.1.15,2013-10-30 15:44:00,
2013-10-30 10:50:00,72.2,70.4,29.93,SSE,153,13.0,14.0,94,0.00,,,0.05,Wunderground v.1.15,2013-10-30 15:50:00,
2013-10-30 10:56:00,72.2,70.4,29.93,South,172,15.0,16.0,94,0.00,,,0.05,Wunderground v.1.15,2013-10-30 15:56:00,
2013-10-30 11:02:00,72.3,70.5,29.93,ESE,120,15.0,15.0,94,0.00,,,0.05,Wunderground v.1.15,2013-10-30 16:02:00,
2013-10-30 11:08:00,72.7,70.6,29.93,South,178,14.0,16.0,93,0.00,,,0.05,Wunderground v.1.15,2013-10-30 16:08:00,
2013-10-30 11:14:00,72.9,70.4,29.93,SSW,201,15.0,23.0,92,0.00,,,0.05,Wunderground v.1.15,2013-10-30 16:14:00,
2013-10-30 11:20:00,73.1,70.6,29.93,SE,145,16.0,16.0,92,0.00,,,0.05,Wunderground v.1.15,2013-10-30 16:20:00,
2013-10-30 11:26:00,73.3,70.5,29.92,South,184,16.0,17.0,91,0.00,,,0.05,Wunderground v.1.15,2013-10-30 16:26:00,
2013-10-30 11:32:00,73.5,70.7,29.92,SW,216,15.0,16.0,91,0.00,,,0.05,Wunderground v.1.15,2013-10-30 16:32:00,
2013-10-30 11:38:00,73.8,70.7,29.92,South,191,14.0,18.0,90,0.00,,,0.05,Wunderground v.1.15,2013-10-30 16:38:00,
2013-10-30 11:44:00,74.1,70.6,29.92,SE,143,13.0,15.0,89,0.00,,,0.05,Wunderground v.1.15,2013-10-30 16:44:00,
2013-10-30 11:50:00,74.4,70.6,29.92,SSW,193,15.0,24.0,88,0.00,,,0.05,Wunderground v.1.15,2013-10-30 16:50:00,
2013-10-30 11:56:00,74.6,70.8,29.92,SSE,158,14.0,24.0,88,0.00,,,0.05,Wunderground v.1.15,2013-10-30 16:56:00,
2013-10-30 12:02:00,74.8,70.7,29.93,South,188,13.0,18.0,87,0.00,,,0.05,Wunderground v.1.15,2013-10-30 17:02:00,
2013-10-30 12:08:00,74.8,70.7,29.92,South,173,15.0,22.0,87,0.00,,,0.05,Wunderground v.1.15,2013-10-30 17:08:00,
2013-10-30 12:14:00,74.9,70.8,29.91,SW,227,15.0,24.0,87,0.00,,,0.05,Wunderground v.1.15,2013-10-30 17:14:00,
2013-10-30 12:20:00,75.1,70.6,29.91,SE,143,14.0,16.0,86,0.00,,,0.05,Wunderground v.1.15,2013-10-30 17:20:00,
2013-10-30 12:26:00,75.1,70.3,29.91,ESE,123,14.0,25.0,85,0.00,,,0.05,Wunderground v.1.15,2013-10-30 17:26:00,
2013-10-30 12:32:00,75.1,70.3,29.91,SSE,150,16.0,16.0,85,0.00,,,0.05,Wunderground v.1.15,2013-10-30 17:32:00,
2013-10-30 12:38:00,75.2,70.4,29.91,SSE,165,14.0,21.0,85,0.00,,,0.05,Wunderground v.1.15,2013-10-30 17:38:00,
2013-10-30 12:44:00,75.3,70.5,29.90,SW,218,14.0,16.0,85,0.00,,,0.05,Wunderground v.1.15,2013-10-30 17:44:00,
2013-10-30 12:50:00,75.5,70.3,29.91,SSE,163,14.0,17.0,84,0.00,,,0.05,Wunderground v.1.15,2013-10-30 17:50:00,
2013-10-30 12:56:00,75.7,70.5,29.90,SSW,205,15.0,20.0,84,0.00,,,0.05,Wunderground v.1.15,2013-10-30 17:56:00,
2013-10-30 13:02:00,75.8,70.6,29.91,SW,223,14.0,15.0,84,0.00,,,0.05,Wunderground v.1.15,2013-10-30 18:02:00,
2013-10-30 13:08:00,75.9,70.4,29.91,South,173,13.0,20.0,83,0.00,,,0.05,Wunderground v.1.15,2013-10-30 18:08:00,
2013-10-30 13:14:00,75.7,70.2,29.90,South,180,13.0,20.0,83,0.00,,,0.05,Wunderground v.1.15,2013-10-30 18:14:00,
2013-10-30 13:20:00,75.5,70.3,29.91,SSW,200,14.0,15.0,84,0.00,,,0.05,Wunderground v.1.15,2013-10-30 18:20:00,
2013-10-30 13:26:00,75.3,70.1,29.90,SSW,194,13.0,15.0,84,0.00,,,0.05,Wunderground v.1.15,2013-10-30 18:26:00,
2013-10-30 13:32:00,75.3,70.5,29.90,SSW,197,12.0,15.0,85,0.00,,,0.05,Wunderground v.1.15,2013-10-30 18:32:00,
2013-10-30 13:38:00,75.1,70.3,29.89,SSW,205,12.0,17.0,85,0.00,,,0.05,Wunderground v.1.15,2013-10-30 18:38:00,
2013-10-30 13:44:00,74.9,70.4,29.89,SSW,198,11.0,13.0,86,0.00,,,0.05,Wunderground v.1.15,2013-10-30 18:44:00,
2013-10-30 13:50:00,74.9,70.4,29.89,SSE,167,10.0,13.0,86,0.00,,,0.05,Wunderground v.1.15,2013-10-30 18:50:00,
2013-10-30 13:56:00,74.8,70.3,29.88,SSW,194,11.0,14.0,86,0.00,,,0.05,Wunderground v.1.15,2013-10-30 18:56:00,
2013-10-30 14:02:00,74.7,70.2,29.88,SSW,193,10.0,13.0,86,0.00,,,0.05,Wunderground v.1.15,2013-10-30 19:02:00,
2013-10-30 14:08:00,74.7,70.2,29.87,South,179,11.0,13.0,86,0.00,,,0.05,Wunderground v.1.15,2013-10-30 19:08:00,
2013-10-30 14:14:00,74.8,70.3,29.86,South,181,11.0,13.0,86,0.00,,,0.05,Wunderground v.1.15,2013-10-30 19:14:00,
2013-10-30 14:20:00,74.9,70.4,29.86,South,173,12.0,12.0,86,0.00,,,0.05,Wunderground v.1.15,2013-10-30 19:20:00,
2013-10-30 14:26:00,75.1,70.6,29.85,SE,141,12.0,13.0,86,0.00,,,0.05,Wunderground v.1.15,2013-10-30 19:26:00,
2013-10-30 14:32:00,75.3,70.8,29.85,SSE,150,11.0,13.0,86,0.00,,,0.05,Wunderground v.1.15,2013-10-30 19:32:00,
2013-10-30 14:38:00,75.7,70.9,29.85,SSE,155,12.0,15.0,85,0.00,,,0.05,Wunderground v.1.15,2013-10-30 19:38:00,
2013-10-30 14:44:00,75.8,71.0,29.85,South,172,12.0,13.0,85,0.00,,,0.05,Wunderground v.1.15,2013-10-30 19:44:00,
2013-10-30 14:50:00,75.7,70.9,29.85,South,182,9.0,13.0,85,0.00,,,0.05,Wunderground v.1.15,2013-10-30 19:50:00,
2013-10-30 14:56:00,75.7,70.9,29.85,SSW,201,9.0,14.0,85,0.00,,,0.05,Wunderground v.1.15,2013-10-30 19:56:00,
2013-10-30 15:02:00,75.7,70.9,29.85,SSE,167,8.0,13.0,85,0.00,,,0.05,Wunderground v.1.15,2013-10-30 20:02:00,
2013-10-30 15:08:00,75.4,70.9,29.85,SSW,205,8.0,13.0,86,0.00,,,0.05,Wunderground v.1.15,2013-10-30 20:08:00,
2013-10-30 15:14:00,74.9,71.1,29.85,SSW,208,8.0,13.0,88,0.00,,,0.05,Wunderground v.1.15,2013-10-30 20:14:00,
2013-10-30 15:20:00,74.8,71.3,29.84,SSE,150,7.0,7.0,89,0.00,,,0.05,Wunderground v.1.15,2013-10-30 20:20:00,
2013-10-30 15:26:00,74.8,71.0,29.84,South,187,6.0,13.0,88,0.00,,,0.05,Wunderground v.1.15,2013-10-30 20:26:00,
2013-10-30 15:32:00,74.9,71.4,29.84,SSE,165,6.0,13.0,89,0.00,,,0.05,Wunderground v.1.15,2013-10-30 20:32:00,
2013-10-30 15:38:00,74.8,71.3,29.84,South,187,5.0,13.0,89,0.00,,,0.05,Wunderground v.1.15,2013-10-30 20:38:00,
2013-10-30 15:44:00,74.6,71.5,29.84,SSW,203,4.0,13.0,90,0.00,,,0.05,Wunderground v.1.15,2013-10-30 20:44:00,
2013-10-30 15:50:00,74.5,71.4,29.84,SW,225,4.0,4.0,90,0.00,,,0.05,Wunderground v.1.15,2013-10-30 20:50:00,
2013-10-30 15:56:00,74.1,71.3,29.84,SSW,193,4.0,13.0,91,0.00,,,0.05,Wunderground v.1.15,2013-10-30 20:56:00,
2013-10-30 16:02:00,73.8,71.3,29.84,SSW,203,4.0,13.0,92,0.00,,,0.05,Wunderground v.1.15,2013-10-30 21:02:00,
2013-10-30 16:08:00,73.5,71.4,29.83,SW,234,4.0,13.0,93,0.29,,,0.08,Wunderground v.1.15,2013-10-30 21:08:00,
2013-10-30 16:14:00,73.1,71.0,29.83,South,176,4.0,13.0,93,0.07,,,0.08,Wunderground v.1.15,2013-10-30 21:14:00,
2013-10-30 16:20:00,72.8,71.0,29.82,SSW,197,5.0,13.0,94,0.04,,,0.08,Wunderground v.1.15,2013-10-30 21:20:00,
2013-10-30 16:26:00,72.7,70.9,29.82,SSW,197,5.0,13.0,94,0.00,,,0.08,Wunderground v.1.15,2013-10-30 21:26:00,
2013-10-30 16:32:00,72.7,70.9,29.82,South,183,4.0,13.0,94,0.00,,,0.08,Wunderground v.1.15,2013-10-30 21:32:00,
2013-10-30 16:38:00,72.7,70.9,29.82,SSE,165,5.0,13.0,94,0.00,,,0.08,Wunderground v.1.15,2013-10-30 21:38:00,
2013-10-30 16:44:00,72.8,71.0,29.82,SSE,150,5.0,13.0,94,0.00,,,0.08,Wunderground v.1.15,2013-10-30 21:44:00,
2013-10-30 16:50:00,72.7,70.9,29.82,SE,145,6.0,13.0,94,0.00,,,0.08,Wunderground v.1.15,2013-10-30 21:50:00,
2013-10-30 16:56:00,72.2,70.4,29.81,South,169,6.0,13.0,94,0.00,,,0.09,Wunderground v.1.15,2013-10-30 21:56:00,
2013-10-30 17:02:00,71.9,70.4,29.81,SSE,155,5.0,13.0,95,0.00,,,0.09,Wunderground v.1.15,2013-10-30 22:02:00,
2013-10-30 17:08:00,71.9,70.4,29.81,SSE,165,4.0,13.0,95,0.00,,,0.09,Wunderground v.1.15,2013-10-30 22:08:00,
2013-10-30 17:14:00,71.9,70.7,29.81,South,179,3.0,13.0,96,0.00,,,0.09,Wunderground v.1.15,2013-10-30 22:14:00,
2013-10-30 17:20:00,71.9,70.7,29.81,SSE,167,3.0,13.0,96,0.00,,,0.09,Wunderground v.1.15,2013-10-30 22:20:00,
2013-10-30 17:26:00,71.9,70.7,29.81,South,188,4.0,13.0,96,0.00,,,0.09,Wunderground v.1.15,2013-10-30 22:26:00,
2013-10-30 17:32:00,72.0,70.8,29.81,South,174,3.0,13.0,96,0.00,,,0.09,Wunderground v.1.15,2013-10-30 22:32:00,
2013-10-30 17:38:00,72.0,70.8,29.81,South,177,3.0,13.0,96,0.00,,,0.09,Wunderground v.1.15,2013-10-30 22:38:00,
2013-10-30 17:44:00,72.0,71.1,29.81,South,172,3.0,13.0,97,0.00,,,0.09,Wunderground v.1.15,2013-10-30 22:44:00,
2013-10-30 17:50:00,72.0,70.8,29.80,SSE,158,3.0,13.0,96,0.00,,,0.09,Wunderground v.1.15,2013-10-30 22:50:00,
2013-10-30 17:56:00,72.0,71.1,29.81,South,173,3.0,13.0,97,0.00,,,0.09,Wunderground v.1.15,2013-10-30 22:56:00,
2013-10-30 18:02:00,72.1,71.2,29.81,SSE,167,2.0,13.0,97,0.00,,,0.09,Wunderground v.1.15,2013-10-30 23:02:00,
2013-10-30 18:08:00,72.0,71.1,29.81,SSW,201,1.0,13.0,97,0.00,,,0.09,Wunderground v.1.15,2013-10-30 23:08:00,
2013-10-30 18:14:00,72.1,70.9,29.82,WSW,238,2.0,13.0,96,0.00,,,0.09,Wunderground v.1.15,2013-10-30 23:14:00,
2013-10-30 18:20:00,72.3,71.1,29.82,SW,222,2.0,2.0,96,0.00,,,0.09,Wunderground v.1.15,2013-10-30 23:20:00,
2013-10-30 18:26:00,72.4,70.9,29.82,SW,225,2.0,13.0,95,0.00,,,0.09,Wunderground v.1.15,2013-10-30 23:26:00,
2013-10-30 18:32:00,72.5,71.0,29.82,SSW,207,2.0,13.0,95,0.00,,,0.09,Wunderground v.1.15,2013-10-30 23:32:00,
2013-10-30 18:38:00,72.6,71.1,29.82,SW,232,3.0,13.0,95,0.00,,,0.09,Wunderground v.1.15,2013-10-30 23:38:00,
2013-10-30 18:44:00,72.7,70.9,29.82,SW,228,2.0,13.0,94,0.00,,,0.09,Wunderground v.1.15,2013-10-30 23:44:00,
2013-10-30 18:50:00,72.7,70.9,29.81,SW,229,2.0,2.0,94,0.00,,,0.09,Wunderground v.1.15,2013-10-30 23:50:00,
2013-10-30 18:56:00,72.6,70.8,29.82,WSW,242,1.0,13.0,94,0.00,,,0.09,Wunderground v.1.15,2013-10-30 23:56:00,
2013-10-30 19:02:00,72.7,70.9,29.82,WSW,250,2.0,13.0,94,0.00,,,0.09,Wunderground v.1.15,2013-10-31 00:02:00,
2013-10-30 19:08:00,72.7,70.6,29.82,SSW,210,2.0,13.0,93,0.00,,,0.09,Wunderground v.1.15,2013-10-31 00:08:00,
2013-10-30 19:14:00,72.8,70.7,29.82,SSW,208,2.0,13.0,93,0.00,,,0.09,Wunderground v.1.15,2013-10-31 00:14:00,
2013-10-30 19:20:00,73.0,70.5,29.82,SSW,210,3.0,3.0,92,0.00,,,0.09,Wunderground v.1.15,2013-10-31 00:20:00,
2013-10-30 19:26:00,73.2,70.7,29.82,SSW,212,3.0,13.0,92,0.00,,,0.09,Wunderground v.1.15,2013-10-31 00:26:00,
2013-10-30 19:32:00,73.2,70.7,29.82,SSW,210,3.0,13.0,92,0.00,,,0.09,Wunderground v.1.15,2013-10-31 00:32:00,
2013-10-30 19:38:00,73.2,70.7,29.82,WSW,240,2.0,13.0,92,0.00,,,0.09,Wunderground v.1.15,2013-10-31 00:38:00,
2013-10-30 19:44:00,73.2,70.7,29.82,SSW,197,2.0,13.0,92,0.00,,,0.09,Wunderground v.1.15,2013-10-31 00:44:00,
2013-10-30 19:50:00,73.1,70.6,29.82,SW,214,2.0,13.0,92,0.00,,,0.09,Wunderground v.1.15,2013-10-31 00:50:00,
2013-10-30 19:56:00,73.0,70.5,29.82,SSW,204,2.0,13.0,92,0.00,,,0.09,Wunderground v.1.15,2013-10-31 00:56:00,
2013-10-30 20:02:00,72.7,70.6,29.82,SE,130,1.0,13.0,93,0.00,,,0.09,Wunderground v.1.15,2013-10-31 01:02:00,
2013-10-30 20:08:00,72.4,70.3,29.82,SE,130,0.0,13.0,93,0.00,,,0.09,Wunderground v.1.15,2013-10-31 01:08:00,
2013-10-30 20:14:00,72.3,70.5,29.82,SW,226,0.0,13.0,94,0.00,,,0.09,Wunderground v.1.15,2013-10-31 01:14:00,
2013-10-30 20:20:00,72.2,70.4,29.82,SW,226,0.0,13.0,94,0.00,,,0.09,Wunderground v.1.15,2013-10-31 01:20:00,
2013-10-30 20:26:00,72.2,70.4,29.81,SW,226,0.0,13.0,94,0.00,,,0.09,Wunderground v.1.15,2013-10-31 01:26:00,
2013-10-30 20:32:00,72.2,70.4,29.81,SW,226,0.0,13.0,94,0.00,,,0.09,Wunderground v.1.15,2013-10-31 01:32:00,
2013-10-30 20:38:00,72.4,70.6,29.82,SW,227,0.0,13.0,94,0.00,,,0.09,Wunderground v.1.15,2013-10-31 01:38:00,
2013-10-30 20:44:00,72.4,70.3,29.82,SW,226,0.0,13.0,93,0.00,,,0.09,Wunderground v.1.15,2013-10-31 01:44:00,
2013-10-30 20:50:00,72.4,70.3,29.81,SW,226,0.0,13.0,93,0.00,,,0.09,Wunderground v.1.15,2013-10-31 01:50:00,
2013-10-30 20:56:00,72.3,70.2,29.81,SW,226,0.0,13.0,93,0.00,,,0.09,Wunderground v.1.15,2013-10-31 01:56:00,
2013-10-30 21:02:00,72.2,70.1,29.80,SW,227,0.0,13.0,93,0.00,,,0.09,Wunderground v.1.15,2013-10-31 02:02:00,
2013-10-30 21:08:00,72.1,70.0,29.80,SW,226,0.0,13.0,93,0.00,,,0.09,Wunderground v.1.15,2013-10-31 02:08:00,
2013-10-30 21:14:00,72.0,69.9,29.79,SW,226,0.0,13.0,93,0.00,,,0.09,Wunderground v.1.15,2013-10-31 02:14:00,
2013-10-30 21:20:00,72.0,69.9,29.79,SW,226,0.0,13.0,93,0.00,,,0.09,Wunderground v.1.15,2013-10-31 02:20:00,
2013-10-30 21:26:00,71.9,69.8,29.79,SW,226,0.0,13.0,93,0.00,,,0.09,Wunderground v.1.15,2013-10-31 02:26:00,
2013-10-30 21:32:00,71.9,70.1,29.80,SW,226,0.0,13.0,94,0.00,,,0.09,Wunderground v.1.15,2013-10-31 02:32:00,
2013-10-30 21:38:00,71.7,69.9,29.81,SW,226,0.0,13.0,94,0.00,,,0.09,Wunderground v.1.15,2013-10-31 02:38:00,
2013-10-30 21:44:00,71.9,70.1,29.81,SW,226,0.0,13.0,94,0.00,,,0.09,Wunderground v.1.15,2013-10-31 02:44:00,
2013-10-30 21:50:00,72.2,70.1,29.81,SW,226,0.0,13.0,93,0.00,,,0.09,Wunderground v.1.15,2013-10-31 02:50:00,
2013-10-30 21:56:00,72.4,70.3,29.81,SW,226,0.0,13.0,93,0.00,,,0.09,Wunderground v.1.15,2013-10-31 02:56:00,
2013-10-30 22:02:00,72.4,70.3,29.81,SW,226,0.0,13.0,93,0.00,,,0.09,Wunderground v.1.15,2013-10-31 03:02:00,
2013-10-30 22:08:00,72.4,70.3,29.81,SW,226,0.0,13.0,93,0.00,,,0.09,Wunderground v.1.15,2013-10-31 03:08:00,
2013-10-30 22:14:00,72.5,70.4,29.80,SW,226,0.0,13.0,93,0.00,,,0.09,Wunderground v.1.15,2013-10-31 03:14:00,
2013-10-30 22:20:00,72.8,70.3,29.80,WSW,256,1.0,13.0,92,0.00,,,0.09,Wunderground v.1.15,2013-10-31 03:20:00,
2013-10-30 22:26:00,73.1,70.3,29.80,SSW,195,1.0,13.0,91,0.00,,,0.09,Wunderground v.1.15,2013-10-31 03:26:00,
2013-10-30 22:32:00,73.0,70.2,29.81,South,181,1.0,13.0,91,0.00,,,0.09,Wunderground v.1.15,2013-10-31 03:32:00,
2013-10-30 22:38:00,73.1,70.0,29.80,SW,218,1.0,13.0,90,0.00,,,0.09,Wunderground v.1.15,2013-10-31 03:38:00,
2013-10-30 22:44:00,73.2,70.1,29.80,SSW,197,1.0,13.0,90,0.00,,,0.09,Wunderground v.1.15,2013-10-31 03:44:00,
2013-10-30 22:50:00,72.9,70.1,29.80,SE,130,1.0,13.0,91,0.00,,,0.09,Wunderground v.1.15,2013-10-31 03:50:00,
2013-10-30 22:56:00,72.0,70.2,29.80,SE,141,4.0,13.0,94,0.00,,,0.09,Wunderground v.1.15,2013-10-31 03:56:00,
2013-10-30 23:02:00,71.6,70.1,29.80,ESE,113,4.0,13.0,95,0.00,,,0.09,Wunderground v.1.15,2013-10-31 04:02:00,
2013-10-30 23:04:00,71.5,70.3,29.80,SSE,165,4.0,13.0,96,0.00,,,0.09,Wunderground v.1.15,2013-10-31 04:04:00,
2013-10-30 23:06:00,71.4,70.2,29.80,SSE,167,3.0,13.0,96,0.00,,,0.09,Wunderground v.1.15,2013-10-31 04:06:00,
2013-10-30 23:12:00,71.3,70.4,29.80,SSE,161,1.0,13.0,97,0.00,,,0.09,Wunderground v.1.15,2013-10-31 04:12:00,
2013-10-30 23:14:00,71.2,70.3,29.80,SSE,162,1.0,13.0,97,0.00,,,0.09,Wunderground v.1.15,2013-10-31 04:14:00,
2013-10-30 23:16:00,71.2,70.3,29.80,SSW,197,1.0,13.0,97,0.00,,,0.09,Wunderground v.1.15,2013-10-31 04:16:00,
2013-10-30 23:22:00,71.1,70.2,29.80,SSE,152,2.0,13.0,97,0.00,,,0.09,Wunderground v.1.15,2013-10-31 04:22:00,
2013-10-30 23:28:00,71.0,70.1,29.80,SSE,162,3.0,13.0,97,0.00,,,0.09,Wunderground v.1.15,2013-10-31 04:28:00,
2013-10-30 23:34:00,70.8,69.9,29.80,SSE,158,2.0,13.0,97,0.00,,,0.09,Wunderground v.1.15,2013-10-31 04:34:00,
2013-10-30 23:40:00,70.8,70.2,29.79,SE,128,1.0,1.0,98,0.00,,,0.09,Wunderground v.1.15,2013-10-31 04:40:00,
2013-10-30 23:46:00,70.8,70.2,29.79,SE,129,0.0,13.0,98,0.00,,,0.09,Wunderground v.1.15,2013-10-31 04:46:00,
2013-10-30 23:52:00,70.7,70.1,29.80,SE,128,0.0,13.0,98,0.00,,,0.09,Wunderground v.1.15,2013-10-31 04:52:00,
2013-10-30 23:58:00,70.7,70.1,29.79,SE,128,0.0,13.0,98,0.00,,,0.09,Wunderground v.1.15,2013-10-31 04:58:00,